Time,TemperatureF,DewpointF,PressureIn,WindDirection,WindDirectionDegrees,WindSpeedMPH,WindSpeedGustMPH,Humidity,HourlyPrecipIn,Conditions,Clouds,dailyrainin,SoftwareType,DateUTC
2013-03-21 00:00:00,35.2,21.9,29.81,SW,233,4.0,28.0,58,0.00,,---,0.00,VWS V14.01,2013-03-21 06:00:00,
2013-03-21 00:05:00,35.2,21.9,29.81,WSW,250,13.0,13.0,58,0.00,,---,0.00,VWS V14.01,2013-03-21 06:05:00,
2013-03-21 00:10:00,35.1,22.2,29.82,East,92,3.0,13.0,59,0.00,,---,0.00,VWS V14.01,2013-03-21 06:10:00,
2013-03-21 00:15:00,34.9,22.4,29.82,West,259,2.0,13.0,60,0.00,,---,0.00,VWS V14.01,2013-03-21 06:15:00,
2013-03-21 00:20:00,34.8,22.7,29.81,SW,219,6.0,13.0,61,0.00,,---,0.00,VWS V14.01,2013-03-21 06:20:00,
2013-03-21 00:25:00,34.8,22.3,29.81,NE,53,3.0,14.0,60,0.00,,---,0.00,VWS V14.01,2013-03-21 06:25:00,
2013-03-21 00:30:00,34.7,22.6,29.81,SSW,212,2.0,15.0,61,0.00,,---,0.00,VWS V14.01,2013-03-21 06:30:00,
2013-03-21 00:35:00,34.8,22.3,29.81,North,352,4.0,14.0,60,0.00,,---,0.00,VWS V14.01,2013-03-21 06:35:00,
2013-03-21 00:40:00,34.8,22.3,29.80,WSW,250,5.0,14.0,60,0.00,,---,0.00,VWS V14.01,2013-03-21 06:40:00,
2013-03-21 00:45:00,34.8,22.3,29.81,West,281,5.0,14.0,60,0.00,,---,0.00,VWS V14.01,2013-03-21 06:45:00,
2013-03-21 00:50:00,34.9,22.0,29.81,WSW,245,6.0,15.0,59,0.00,,---,0.00,VWS V14.01,2013-03-21 06:50:00,
2013-03-21 00:55:00,34.9,22.0,29.81,WSW,245,7.0,15.0,59,0.00,,---,0.00,VWS V14.01,2013-03-21 06:55:00,
2013-03-21 01:00:00,34.9,22.0,29.81,West,259,4.0,15.0,59,0.00,,---,0.00,VWS V14.01,2013-03-21 07:00:00,
2013-03-21 01:05:00,34.9,22.0,29.81,SSW,204,1.0,4.0,59,0.00,,---,0.00,VWS V14.01,2013-03-21 07:05:00,
2013-03-21 01:10:00,34.9,22.4,29.81,NNE,12,7.0,11.0,60,0.00,,---,0.00,VWS V14.01,2013-03-21 07:10:00,
2013-03-21 01:15:00,34.8,22.3,29.81,SW,235,6.0,12.0,60,0.00,,---,0.00,VWS V14.01,2013-03-21 07:15:00,
2013-03-21 01:20:00,34.8,22.3,29.82,West,278,4.0,12.0,60,0.00,,---,0.00,VWS V14.01,2013-03-21 07:20:00,
2013-03-21 01:25:00,34.9,22.0,29.82,SW,231,5.0,12.0,59,0.00,,---,0.00,VWS V14.01,2013-03-21 07:25:00,
2013-03-21 01:30:00,34.9,22.4,29.82,West,262,3.0,12.0,60,0.00,,---,0.00,VWS V14.01,2013-03-21 07:30:00,
2013-03-21 01:35:00,35.1,21.8,29.82,WNW,287,4.0,10.0,58,0.00,,---,0.00,VWS V14.01,2013-03-21 07:35:00,
2013-03-21 01:40:00,35.3,21.6,29.83,WSW,255,1.0,12.0,57,0.00,,---,0.00,VWS V14.01,2013-03-21 07:40:00,
2013-03-21 01:45:00,35.3,21.6,29.85,NE,47,9.0,12.0,57,0.00,,---,0.00,VWS V14.01,2013-03-21 07:45:00,
2013-03-21 01:50:00,35.9,21.3,29.84,West,267,8.0,12.0,55,0.00,,---,0.00,VWS V14.01,2013-03-21 07:50:00,
2013-03-21 01:55:00,36.1,21.5,29.85,WSW,246,2.0,12.0,55,0.00,,---,0.00,VWS V14.01,2013-03-21 07:55:00,
2013-03-21 02:00:00,36.0,22.3,29.85,WSW,256,4.0,12.0,57,0.00,,---,0.00,VWS V14.01,2013-03-21 08:00:00,
2013-03-21 02:05:00,35.7,22.4,29.85,WSW,240,4.0,4.0,58,0.00,,---,0.00,VWS V14.01,2013-03-21 08:05:00,
2013-03-21 02:10:00,35.6,22.3,29.84,SW,219,2.0,8.0,58,0.00,,---,0.00,VWS V14.01,2013-03-21 08:10:00,
2013-03-21 02:15:00,35.5,23.0,29.84,SSW,211,3.0,11.0,60,0.00,,---,0.00,VWS V14.01,2013-03-21 08:15:00,
2013-03-21 02:20:00,35.3,22.8,29.83,WSW,238,4.0,11.0,60,0.00,,---,0.00,VWS V14.01,2013-03-21 08:20:00,
2013-03-21 02:25:00,35.3,22.8,29.82,WSW,240,1.0,11.0,60,0.00,,---,0.00,VWS V14.01,2013-03-21 08:25:00,
2013-03-21 02:30:00,35.2,22.7,29.82,WSW,247,3.0,11.0,60,0.00,,---,0.00,VWS V14.01,2013-03-21 08:30:00,
2013-03-21 02:35:00,35.0,22.9,29.82,SSW,203,1.0,4.0,61,0.00,,---,0.00,VWS V14.01,2013-03-21 08:35:00,
2013-03-21 02:40:00,34.8,22.7,29.82,West,267,4.0,6.0,61,0.00,,---,0.00,VWS V14.01,2013-03-21 08:40:00,
2013-03-21 02:45:00,34.7,22.6,29.82,SW,221,0.0,6.0,61,0.00,,---,0.00,VWS V14.01,2013-03-21 08:45:00,
2013-03-21 02:50:00,34.6,22.5,29.82,ENE,75,0.0,6.0,61,0.00,,---,0.00,VWS V14.01,2013-03-21 08:50:00,
2013-03-21 02:55:00,34.3,22.3,29.81,NW,309,0.0,6.0,61,0.00,,---,0.00,VWS V14.01,2013-03-21 08:55:00,
2013-03-21 03:00:00,34.1,22.1,29.82,NNW,340,1.0,6.0,61,0.00,,---,0.00,VWS V14.01,2013-03-21 09:00:00,
2013-03-21 03:05:00,34.4,22.0,29.81,WSW,245,1.0,4.0,60,0.00,,---,0.00,VWS V14.01,2013-03-21 09:05:00,
2013-03-21 03:10:00,34.4,22.0,29.81,North,4,0.0,4.0,60,0.00,,---,0.00,VWS V14.01,2013-03-21 09:10:00,
2013-03-21 03:15:00,34.3,21.9,29.81,WNW,291,1.0,4.0,60,0.00,,---,0.00,VWS V14.01,2013-03-21 09:15:00,
2013-03-21 03:20:00,34.2,21.8,29.80,West,276,1.0,2.0,60,0.00,,---,0.00,VWS V14.01,2013-03-21 09:20:00,
2013-03-21 03:25:00,34.1,21.7,29.80,WSW,252,2.0,2.0,60,0.00,,---,0.00,VWS V14.01,2013-03-21 09:25:00,
2013-03-21 03:30:00,34.2,21.8,29.79,West,259,1.0,4.0,60,0.00,,---,0.00,VWS V14.01,2013-03-21 09:30:00,
2013-03-21 03:35:00,34.3,21.9,29.79,WSW,239,3.0,5.0,60,0.00,,---,0.00,VWS V14.01,2013-03-21 09:35:00,
2013-03-21 03:40:00,34.5,21.7,29.79,NE,51,4.0,6.0,59,0.00,,---,0.00,VWS V14.01,2013-03-21 09:40:00,
2013-03-21 03:45:00,34.7,21.9,29.78,WSW,256,4.0,6.0,59,0.00,,---,0.00,VWS V14.01,2013-03-21 09:45:00,
2013-03-21 03:50:00,34.9,21.6,29.78,SSW,205,1.0,8.0,58,0.00,,---,0.00,VWS V14.01,2013-03-21 09:50:00,
2013-03-21 03:55:00,34.8,21.5,29.78,SW,229,1.0,8.0,58,0.00,,---,0.00,VWS V14.01,2013-03-21 09:55:00,
2013-03-21 04:00:00,34.7,21.5,29.78,WSW,249,1.0,8.0,58,0.00,,---,0.00,VWS V14.01,2013-03-21 10:00:00,
2013-03-21 04:05:00,34.8,21.5,29.79,WSW,245,1.0,4.0,58,0.00,,---,0.00,VWS V14.01,2013-03-21 10:05:00,
2013-03-21 04:10:00,34.8,21.5,29.78,West,263,2.0,7.0,58,0.00,,---,0.00,VWS V14.01,2013-03-21 10:10:00,
2013-03-21 04:15:00,34.8,21.5,29.78,West,270,1.0,7.0,58,0.00,,---,0.00,VWS V14.01,2013-03-21 10:15:00,
2013-03-21 04:20:00,34.8,21.5,29.78,South,183,1.0,7.0,58,0.00,,---,0.00,VWS V14.01,2013-03-21 10:20:00,
2013-03-21 04:25:00,34.8,21.5,29.77,West,275,0.0,7.0,58,0.00,,---,0.00,VWS V14.01,2013-03-21 10:25:00,
2013-03-21 04:30:00,34.7,21.5,29.77,West,273,2.0,7.0,58,0.00,,---,0.00,VWS V14.01,2013-03-21 10:30:00,
2013-03-21 04:35:00,34.6,21.4,29.77,WNW,287,3.0,3.0,58,0.00,,---,0.00,VWS V14.01,2013-03-21 10:35:00,
2013-03-21 04:40:00,34.6,21.4,29.77,WNW,287,3.0,3.0,58,0.00,,---,0.00,VWS V14.01,2013-03-21 10:40:00,
2013-03-21 04:45:00,34.6,21.4,29.77,WNW,287,3.0,3.0,58,0.00,,---,0.00,VWS V14.01,2013-03-21 10:45:00,
2013-03-21 04:50:00,34.6,21.4,29.77,WNW,287,3.0,3.0,58,0.00,,---,0.00,VWS V14.01,2013-03-21 10:50:00,
2013-03-21 04:55:00,34.6,21.4,29.76,WNW,287,3.0,3.0,58,0.00,,---,0.00,VWS V14.01,2013-03-21 10:55:00,
2013-03-21 05:00:00,34.6,21.4,29.76,WNW,287,3.0,3.0,58,0.00,,---,0.00,VWS V14.01,2013-03-21 11:00:00,
2013-03-21 05:05:00,34.6,21.4,29.77,WNW,287,3.0,3.0,58,0.00,,---,0.00,VWS V14.01,2013-03-21 11:05:00,
2013-03-21 05:10:00,34.6,21.4,29.76,WNW,287,3.0,3.0,58,0.00,,---,0.00,VWS V14.01,2013-03-21 11:10:00,
2013-03-21 05:15:00,34.6,21.4,29.76,WNW,287,3.0,3.0,58,0.00,,---,0.00,VWS V14.01,2013-03-21 11:15:00,
2013-03-21 05:20:00,34.6,21.4,29.76,WNW,287,3.0,3.0,58,0.00,,---,0.00,VWS V14.01,2013-03-21 11:20:00,
2013-03-21 05:25:00,34.6,21.4,29.76,WNW,287,3.0,3.0,58,0.00,,---,0.00,VWS V14.01,2013-03-21 11:25:00,
2013-03-21 05:30:00,34.6,21.4,29.75,WNW,287,3.0,3.0,58,0.00,,---,0.00,VWS V14.01,2013-03-21 11:30:00,
2013-03-21 05:35:00,34.6,21.4,29.75,WNW,287,3.0,3.0,58,0.00,,---,0.00,VWS V14.01,2013-03-21 11:35:00,
2013-03-21 05:40:00,34.6,21.4,29.74,WNW,287,3.0,3.0,58,0.00,,---,0.00,VWS V14.01,2013-03-21 11:40:00,
2013-03-21 05:45:00,34.6,21.4,29.74,WNW,287,3.0,3.0,58,0.00,,---,0.00,VWS V14.01,2013-03-21 11:45:00,
2013-03-21 05:50:00,34.6,21.4,29.75,WNW,287,3.0,3.0,58,0.00,,---,0.00,VWS V14.01,2013-03-21 11:50:00,
2013-03-21 05:55:00,34.6,21.4,29.75,WNW,287,3.0,3.0,58,0.00,,---,0.00,VWS V14.01,2013-03-21 11:55:00,
2013-03-21 06:00:00,34.6,21.4,29.74,WNW,287,3.0,3.0,58,0.00,,---,0.00,VWS V14.01,2013-03-21 12:00:00,
2013-03-21 06:05:00,34.6,21.4,29.74,WNW,287,3.0,3.0,58,0.00,,---,0.00,VWS V14.01,2013-03-21 12:05:00,
2013-03-21 06:10:00,34.6,21.4,29.74,WNW,287,3.0,3.0,58,0.00,,---,0.00,VWS V14.01,2013-03-21 12:10:00,
2013-03-21 06:15:00,34.6,21.4,29.73,WNW,287,3.0,3.0,58,0.00,,---,0.00,VWS V14.01,2013-03-21 12:15:00,
2013-03-21 06:20:00,34.6,21.4,29.73,WNW,287,3.0,3.0,58,0.00,,---,0.00,VWS V14.01,2013-03-21 12:20:00,
2013-03-21 06:25:00,34.6,21.4,29.73,WNW,287,3.0,3.0,58,0.00,,---,0.00,VWS V14.01,2013-03-21 12:25:00,
2013-03-21 06:30:00,34.6,21.4,29.73,WNW,287,3.0,3.0,58,0.00,,---,0.00,VWS V14.01,2013-03-21 12:30:00,
2013-03-21 06:35:00,34.6,21.4,29.73,WNW,287,3.0,3.0,58,0.00,,---,0.00,VWS V14.01,2013-03-21 12:35:00,
2013-03-21 06:40:00,34.6,21.4,29.74,WNW,287,3.0,3.0,58,0.00,,---,0.00,VWS V14.01,2013-03-21 12:40:00,
2013-03-21 06:45:00,34.6,21.4,29.74,WNW,287,3.0,3.0,58,0.00,,---,0.00,VWS V14.01,2013-03-21 12:45:00,
2013-03-21 06:50:00,34.6,21.4,29.74,WNW,287,3.0,3.0,58,0.00,,---,0.00,VWS V14.01,2013-03-21 12:50:00,
2013-03-21 06:55:00,34.6,21.4,29.74,WNW,287,3.0,3.0,58,0.00,,---,0.00,VWS V14.01,2013-03-21 12:55:00,
2013-03-21 07:00:00,34.6,21.4,29.74,WNW,287,3.0,3.0,58,0.00,,---,0.00,VWS V14.01,2013-03-21 13:00:00,
2013-03-21 07:05:00,34.6,21.4,29.74,WNW,287,3.0,3.0,58,0.00,,---,0.00,VWS V14.01,2013-03-21 13:05:00,
2013-03-21 07:10:00,34.6,21.4,29.73,WNW,287,3.0,3.0,58,0.00,,---,0.00,VWS V14.01,2013-03-21 13:10:00,
2013-03-21 07:15:00,34.6,21.4,29.71,WNW,287,3.0,3.0,58,0.00,,---,0.00,VWS V14.01,2013-03-21 13:15:00,
2013-03-21 07:20:00,34.6,21.4,29.71,WNW,287,3.0,3.0,58,0.00,,---,0.00,VWS V14.01,2013-03-21 13:20:00,
2013-03-21 07:25:00,34.6,21.4,29.70,WNW,287,3.0,3.0,58,0.00,,---,0.00,VWS V14.01,2013-03-21 13:25:00,
2013-03-21 07:30:00,34.6,21.4,29.70,WNW,287,3.0,3.0,58,0.00,,---,0.00,VWS V14.01,2013-03-21 13:30:00,
2013-03-21 07:35:00,34.6,21.4,29.71,WNW,287,3.0,3.0,58,0.00,,---,0.00,VWS V14.01,2013-03-21 13:35:00,
2013-03-21 07:40:00,34.6,21.4,29.70,WNW,287,3.0,3.0,58,0.00,,---,0.00,VWS V14.01,2013-03-21 13:40:00,
2013-03-21 07:45:00,34.6,21.4,29.70,WNW,287,3.0,3.0,58,0.00,,---,0.00,VWS V14.01,2013-03-21 13:45:00,
2013-03-21 07:50:00,34.6,21.4,29.71,WNW,287,3.0,3.0,58,0.00,,---,0.00,VWS V14.01,2013-03-21 13:50:00,
2013-03-21 07:55:00,34.6,21.4,29.71,WNW,287,3.0,3.0,58,0.00,,---,0.00,VWS V14.01,2013-03-21 13:55:00,
2013-03-21 08:00:00,34.6,21.4,29.70,WNW,287,3.0,3.0,58,0.00,,---,0.00,VWS V14.01,2013-03-21 14:00:00,
2013-03-21 08:05:00,34.6,21.4,29.70,WNW,287,3.0,3.0,58,0.00,,---,0.00,VWS V14.01,2013-03-21 14:05:00,
2013-03-21 08:10:00,34.6,21.4,29.69,WNW,287,3.0,3.0,58,0.00,,---,0.00,VWS V14.01,2013-03-21 14:10:00,
2013-03-21 08:15:00,34.6,21.4,29.69,WNW,287,3.0,3.0,58,0.00,,---,0.00,VWS V14.01,2013-03-21 14:15:00,
2013-03-21 08:20:00,34.6,21.4,29.68,WNW,287,3.0,3.0,58,0.00,,---,0.00,VWS V14.01,2013-03-21 14:20:00,
2013-03-21 08:25:00,34.6,21.4,29.68,WNW,287,3.0,3.0,58,0.00,,---,0.00,VWS V14.01,2013-03-21 14:25:00,
2013-03-21 08:30:00,34.6,21.4,29.68,WNW,287,3.0,3.0,58,0.00,,---,0.00,VWS V14.01,2013-03-21 14:30:00,
2013-03-21 08:35:00,34.6,21.4,29.67,WNW,287,3.0,3.0,58,0.00,,---,0.00,VWS V14.01,2013-03-21 14:35:00,
2013-03-21 08:40:00,34.6,21.4,29.67,WNW,287,3.0,3.0,58,0.00,,---,0.00,VWS V14.01,2013-03-21 14:40:00,
2013-03-21 08:45:00,35.3,22.8,29.67,SE,124,3.0,8.0,60,0.00,,---,0.00,VWS V14.01,2013-03-21 14:45:00,
2013-03-21 08:50:00,35.4,22.5,29.67,WSW,257,2.0,8.0,59,0.00,,---,0.00,VWS V14.01,2013-03-21 14:50:00,
2013-03-21 08:55:00,35.6,22.3,29.67,West,262,3.0,8.0,58,0.00,,---,0.00,VWS V14.01,2013-03-21 14:55:00,
2013-03-21 09:00:00,35.7,22.4,29.67,SE,129,4.0,9.0,58,0.00,,---,0.00,VWS V14.01,2013-03-21 15:00:00,
2013-03-21 09:05:00,35.8,22.9,29.67,ESE,110,3.0,7.0,59,0.00,,---,0.00,VWS V14.01,2013-03-21 15:05:00,
2013-03-21 09:10:00,35.5,23.8,29.66,ESE,117,1.0,7.0,62,0.00,,---,0.00,VWS V14.01,2013-03-21 15:10:00,
2013-03-21 09:15:00,35.4,23.7,29.66,West,278,3.0,9.0,62,0.00,,---,0.00,VWS V14.01,2013-03-21 15:15:00,
2013-03-21 09:20:00,35.7,22.8,29.67,SE,125,1.0,9.0,59,0.00,,---,0.00,VWS V14.01,2013-03-21 15:20:00,
2013-03-21 09:25:00,36.0,22.3,29.67,WSW,255,1.0,9.0,57,0.00,,---,0.00,VWS V14.01,2013-03-21 15:25:00,
2013-03-21 09:30:00,36.2,22.5,29.67,WSW,255,0.0,9.0,57,0.00,,---,0.00,VWS V14.01,2013-03-21 15:30:00,
2013-03-21 09:35:00,36.0,22.3,29.67,ESE,108,3.0,4.0,57,0.00,,---,0.00,VWS V14.01,2013-03-21 15:35:00,
2013-03-21 09:40:00,35.9,22.6,29.66,SSE,148,1.0,4.0,58,0.00,,---,0.00,VWS V14.01,2013-03-21 15:40:00,
2013-03-21 09:45:00,36.1,22.4,29.66,ESE,110,11.0,11.0,57,0.00,,---,0.00,VWS V14.01,2013-03-21 15:45:00,
2013-03-21 09:50:00,36.5,21.9,29.66,WNW,302,2.0,14.0,55,0.00,,---,0.00,VWS V14.01,2013-03-21 15:50:00,
2013-03-21 09:55:00,36.4,21.8,29.66,NNW,333,0.0,14.0,55,0.00,,---,0.00,VWS V14.01,2013-03-21 15:55:00,
2013-03-21 10:00:00,36.3,21.7,29.65,SW,236,2.0,14.0,55,0.00,,---,0.00,VWS V14.01,2013-03-21 16:00:00,
2013-03-21 10:05:00,36.3,21.7,29.66,ESE,110,6.0,6.0,55,0.00,,---,0.00,VWS V14.01,2013-03-21 16:05:00,
2013-03-21 10:10:00,36.1,24.0,29.65,SSW,204,2.0,11.0,61,0.00,,---,0.00,VWS V14.01,2013-03-21 16:10:00,
2013-03-21 10:15:00,35.7,24.4,29.65,WSW,242,1.0,11.0,63,0.00,,---,0.00,VWS V14.01,2013-03-21 16:15:00,
2013-03-21 10:20:00,35.6,24.6,29.65,East,97,2.0,11.0,64,0.00,,---,0.00,VWS V14.01,2013-03-21 16:20:00,
2013-03-21 10:25:00,35.7,22.0,29.66,West,267,1.0,11.0,57,0.00,,---,0.00,VWS V14.01,2013-03-21 16:25:00,
2013-03-21 10:30:00,36.7,20.8,29.66,SW,216,6.0,11.0,52,0.00,,---,0.00,VWS V14.01,2013-03-21 16:30:00,
2013-03-21 10:35:00,37.5,19.6,29.67,SW,219,6.0,15.0,48,0.00,,---,0.00,VWS V14.01,2013-03-21 16:35:00,
2013-03-21 10:40:00,37.8,19.9,29.67,NW,316,3.0,15.0,48,0.00,,---,0.00,VWS V14.01,2013-03-21 16:40:00,
2013-03-21 10:45:00,37.6,19.2,29.68,East,88,2.0,15.0,47,0.00,,---,0.00,VWS V14.01,2013-03-21 16:45:00,
2013-03-21 10:50:00,37.5,19.1,29.68,NE,54,1.0,15.0,47,0.00,,---,0.00,VWS V14.01,2013-03-21 16:50:00,
2013-03-21 10:55:00,37.5,19.6,29.68,West,261,6.0,15.0,48,0.00,,---,0.00,VWS V14.01,2013-03-21 16:55:00,
2013-03-21 11:00:00,37.4,20.0,29.69,SW,231,2.0,15.0,49,0.00,,---,0.00,VWS V14.01,2013-03-21 17:00:00,
2013-03-21 11:05:00,38.1,19.7,29.67,SE,136,1.0,1.0,47,0.00,,---,0.00,VWS V14.01,2013-03-21 17:05:00,
2013-03-21 11:10:00,38.7,18.1,29.68,North,359,6.0,11.0,43,0.00,,---,0.00,VWS V14.01,2013-03-21 17:10:00,
2013-03-21 11:15:00,38.4,18.4,29.67,ESE,105,3.0,11.0,44,0.00,,---,0.00,VWS V14.01,2013-03-21 17:15:00,
2013-03-21 11:20:00,39.3,18.7,29.65,SSE,165,4.0,11.0,43,0.00,,---,0.00,VWS V14.01,2013-03-21 17:20:00,
2013-03-21 11:25:00,41.2,18.7,29.66,West,280,3.0,12.0,40,0.00,,---,0.00,VWS V14.01,2013-03-21 17:25:00,
2013-03-21 11:30:00,42.3,17.3,29.66,SSW,209,3.0,12.0,36,0.00,,---,0.00,VWS V14.01,2013-03-21 17:30:00,
2013-03-21 11:35:00,43.4,15.5,29.67,West,280,3.0,7.0,32,0.00,,---,0.00,VWS V14.01,2013-03-21 17:35:00,
2013-03-21 11:40:00,43.3,16.1,29.68,WSW,250,2.0,14.0,33,0.00,,---,0.00,VWS V14.01,2013-03-21 17:40:00,
2013-03-21 11:45:00,42.5,16.1,29.68,SSW,207,3.0,14.0,34,0.00,,---,0.00,VWS V14.01,2013-03-21 17:45:00,
2013-03-21 11:50:00,43.4,17.6,29.68,SSE,153,5.0,14.0,35,0.00,,---,0.00,VWS V14.01,2013-03-21 17:50:00,
2013-03-21 11:55:00,43.7,16.5,29.68,WNW,287,3.0,14.0,33,0.00,,---,0.00,VWS V14.01,2013-03-21 17:55:00,
2013-03-21 12:00:00,43.5,17.0,29.67,NNW,344,1.0,14.0,34,0.00,,---,0.00,VWS V14.01,2013-03-21 18:00:00,
2013-03-21 12:05:00,43.7,17.9,29.67,WNW,287,1.0,5.0,35,0.00,,---,0.00,VWS V14.01,2013-03-21 18:05:00,
2013-03-21 12:10:00,43.2,18.1,29.67,West,265,1.0,7.0,36,0.00,,---,0.00,VWS V14.01,2013-03-21 18:10:00,
2013-03-21 12:15:00,43.1,18.0,29.67,SSE,149,1.0,7.0,36,0.00,,---,0.00,VWS V14.01,2013-03-21 18:15:00,
2013-03-21 12:20:00,42.3,18.5,29.67,WSW,247,2.0,7.0,38,0.00,,---,0.00,VWS V14.01,2013-03-21 18:20:00,
2013-03-21 12:25:00,41.8,19.3,29.67,SSE,162,4.0,7.0,40,0.00,,---,0.00,VWS V14.01,2013-03-21 18:25:00,
2013-03-21 12:30:00,41.6,20.2,29.67,West,259,2.0,7.0,42,0.00,,---,0.00,VWS V14.01,2013-03-21 18:30:00,
2013-03-21 12:35:00,41.3,20.5,29.67,SSW,200,2.0,4.0,43,0.00,,---,0.00,VWS V14.01,2013-03-21 18:35:00,
2013-03-21 12:40:00,40.7,21.0,29.67,SW,231,3.0,8.0,45,0.00,,---,0.00,VWS V14.01,2013-03-21 18:40:00,
2013-03-21 12:45:00,40.6,21.5,29.67,WNW,295,1.0,8.0,46,0.00,,---,0.00,VWS V14.01,2013-03-21 18:45:00,
2013-03-21 12:50:00,41.0,22.3,29.67,ESE,123,1.0,8.0,47,0.00,,---,0.00,VWS V14.01,2013-03-21 18:50:00,
2013-03-21 12:55:00,42.0,23.2,29.67,SSE,149,0.0,8.0,47,0.00,,---,0.00,VWS V14.01,2013-03-21 18:55:00,
2013-03-21 13:00:00,42.3,23.5,29.67,WSW,237,1.0,8.0,47,0.00,,---,0.00,VWS V14.01,2013-03-21 19:00:00,
2013-03-21 13:05:00,41.1,22.9,29.67,West,260,0.0,0.0,48,0.00,,---,0.00,VWS V14.01,2013-03-21 19:05:00,
2013-03-21 13:10:00,40.2,23.5,29.66,SE,140,1.0,3.0,51,0.00,,---,0.00,VWS V14.01,2013-03-21 19:10:00,
2013-03-21 13:15:00,40.2,23.5,29.66,West,273,4.0,5.0,51,0.00,,---,0.00,VWS V14.01,2013-03-21 19:15:00,
2013-03-21 13:20:00,39.7,23.1,29.67,West,260,1.0,6.0,51,0.00,,---,0.00,VWS V14.01,2013-03-21 19:20:00,
2013-03-21 13:25:00,38.8,23.6,29.68,SSW,208,2.0,6.0,54,0.00,,---,0.00,VWS V14.01,2013-03-21 19:25:00,
2013-03-21 13:30:00,36.3,25.3,29.70,WSW,255,4.0,9.0,64,0.00,,---,0.00,VWS V14.01,2013-03-21 19:30:00,
2013-03-21 13:35:00,33.2,26.5,29.70,SSW,207,3.0,4.0,76,0.00,,---,0.00,VWS V14.01,2013-03-21 19:35:00,
2013-03-21 13:40:00,31.5,26.6,29.70,SW,229,2.0,5.0,82,0.00,,---,0.00,VWS V14.01,2013-03-21 19:40:00,
2013-03-21 13:45:00,30.8,26.8,29.69,WNW,291,0.0,5.0,85,0.00,,---,0.00,VWS V14.01,2013-03-21 19:45:00,
2013-03-21 13:50:00,31.0,27.6,29.69,ESE,120,0.0,5.0,87,0.00,,---,0.00,VWS V14.01,2013-03-21 19:50:00,
2013-03-21 13:55:00,32.1,29.2,29.69,ESE,122,2.0,5.0,89,0.00,,---,0.00,VWS V14.01,2013-03-21 19:55:00,
2013-03-21 14:00:00,33.4,30.0,29.68,NNW,340,0.0,5.0,87,0.00,,---,0.00,VWS V14.01,2013-03-21 20:00:00,
2013-03-21 14:05:00,34.4,30.1,29.68,WSW,250,2.0,2.0,84,0.00,,---,0.00,VWS V14.01,2013-03-21 20:05:00,
2013-03-21 14:10:00,34.7,26.3,29.68,WSW,252,3.0,9.0,71,0.00,,---,0.00,VWS V14.01,2013-03-21 20:10:00,
2013-03-21 14:15:00,34.5,25.0,29.68,NNW,340,4.0,9.0,68,0.00,,---,0.00,VWS V14.01,2013-03-21 20:15:00,
2013-03-21 14:20:00,34.9,25.1,29.68,SW,221,2.0,9.0,67,0.00,,---,0.00,VWS V14.01,2013-03-21 20:20:00,
2013-03-21 14:25:00,34.7,24.9,29.68,WSW,255,5.0,9.0,67,0.00,,---,0.00,VWS V14.01,2013-03-21 20:25:00,
2013-03-21 14:30:00,33.7,25.6,29.69,WSW,244,1.0,9.0,72,0.00,,---,0.00,VWS V14.01,2013-03-21 20:30:00,
2013-03-21 14:35:00,31.9,25.2,29.71,WSW,242,5.0,8.0,76,0.00,,---,0.00,VWS V14.01,2013-03-21 20:35:00,
2013-03-21 14:40:00,30.4,24.7,29.72,West,274,5.0,8.0,79,0.00,,---,0.00,VWS V14.01,2013-03-21 20:40:00,
2013-03-21 14:45:00,29.6,24.2,29.72,SW,219,7.0,8.0,80,0.00,,---,0.00,VWS V14.01,2013-03-21 20:45:00,
2013-03-21 14:50:00,29.2,23.8,29.71,ESE,122,3.0,11.0,80,0.00,,---,0.00,VWS V14.01,2013-03-21 20:50:00,
2013-03-21 14:55:00,28.9,23.8,29.70,WSW,250,1.0,11.0,81,0.00,,---,0.00,VWS V14.01,2013-03-21 20:55:00,
2013-03-21 15:00:00,29.0,23.0,29.69,ESE,110,3.0,11.0,78,0.00,,---,0.00,VWS V14.01,2013-03-21 21:00:00,
2013-03-21 15:05:00,30.0,23.7,29.69,NNE,12,3.0,6.0,77,0.00,,---,0.00,VWS V14.01,2013-03-21 21:05:00,
2013-03-21 15:10:00,31.3,25.2,29.67,SW,231,5.0,9.0,78,0.00,,---,0.00,VWS V14.01,2013-03-21 21:10:00,
2013-03-21 15:15:00,31.9,25.2,29.66,ENE,67,3.0,9.0,76,0.00,,---,0.00,VWS V14.01,2013-03-21 21:15:00,
2013-03-21 15:20:00,32.1,25.7,29.65,West,260,2.0,9.0,77,0.00,,---,0.00,VWS V14.01,2013-03-21 21:20:00,
2013-03-21 15:25:00,32.5,23.8,29.65,North,356,6.0,12.0,70,0.00,,---,0.00,VWS V14.01,2013-03-21 21:25:00,
2013-03-21 15:30:00,32.0,21.9,29.65,WSW,251,4.0,12.0,66,0.00,,---,0.00,VWS V14.01,2013-03-21 21:30:00,
2013-03-21 15:35:00,32.5,22.8,29.65,WSW,238,7.0,11.0,67,0.00,,---,0.00,VWS V14.01,2013-03-21 21:35:00,
2013-03-21 15:40:00,30.5,22.6,29.65,SSW,198,3.0,15.0,72,0.00,,---,0.00,VWS V14.01,2013-03-21 21:40:00,
2013-03-21 15:45:00,28.8,22.5,29.65,West,267,2.0,15.0,77,0.00,,---,0.00,VWS V14.01,2013-03-21 21:45:00,
2013-03-21 15:50:00,28.5,22.8,29.63,West,271,8.0,15.0,79,0.00,,---,0.00,VWS V14.01,2013-03-21 21:50:00,
2013-03-21 15:55:00,29.8,20.5,29.63,NNE,20,4.0,18.0,68,0.00,,---,0.00,VWS V14.01,2013-03-21 21:55:00,
2013-03-21 16:00:00,30.8,19.3,29.64,SW,217,7.0,20.0,62,0.00,,---,0.00,VWS V14.01,2013-03-21 22:00:00,
2013-03-21 16:05:00,31.4,17.5,29.65,WSW,256,8.0,8.0,56,0.00,,---,0.00,VWS V14.01,2013-03-21 22:05:00,
2013-03-21 16:10:00,32.0,18.1,29.66,West,264,4.0,14.0,56,0.00,,---,0.00,VWS V14.01,2013-03-21 22:10:00,
2013-03-21 16:15:00,32.4,14.9,29.67,ENE,75,3.0,14.0,48,0.00,,---,0.00,VWS V14.01,2013-03-21 22:15:00,
2013-03-21 16:20:00,32.8,13.3,29.68,NNW,345,5.0,14.0,44,0.00,,---,0.00,VWS V14.01,2013-03-21 22:20:00,
2013-03-21 16:25:00,33.1,13.1,29.69,South,174,2.0,14.0,43,0.00,,---,0.00,VWS V14.01,2013-03-21 22:25:00,
2013-03-21 16:30:00,33.7,14.6,29.70,WSW,250,1.0,14.0,45,0.00,,---,0.00,VWS V14.01,2013-03-21 22:30:00,
2013-03-21 16:35:00,34.1,14.5,29.70,ESE,122,1.0,1.0,44,0.00,,---,0.00,VWS V14.01,2013-03-21 22:35:00,
2013-03-21 16:40:00,33.9,13.2,29.70,SW,215,2.0,7.0,42,0.00,,---,0.00,VWS V14.01,2013-03-21 22:40:00,
2013-03-21 16:45:00,33.9,12.1,29.70,SW,219,4.0,8.0,40,0.00,,---,0.00,VWS V14.01,2013-03-21 22:45:00,
2013-03-21 16:50:00,33.9,13.2,29.71,South,172,2.0,8.0,42,0.00,,---,0.00,VWS V14.01,2013-03-21 22:50:00,
2013-03-21 16:55:00,34.2,13.5,29.71,SSW,195,5.0,8.0,42,0.00,,---,0.00,VWS V14.01,2013-03-21 22:55:00,
2013-03-21 17:00:00,33.8,9.7,29.72,WSW,250,1.0,8.0,36,0.00,,---,0.00,VWS V14.01,2013-03-21 23:00:00,
2013-03-21 17:05:00,33.5,9.4,29.72,North,359,6.0,8.0,36,0.00,,---,0.00,VWS V14.01,2013-03-21 23:05:00,
2013-03-21 17:10:00,32.9,9.5,29.72,SSW,207,2.0,8.0,37,0.00,,---,0.00,VWS V14.01,2013-03-21 23:10:00,
2013-03-21 17:15:00,32.9,11.8,29.72,ESE,111,0.0,8.0,41,0.00,,---,0.00,VWS V14.01,2013-03-21 23:15:00,
2013-03-21 17:20:00,32.6,10.4,29.72,WNW,291,2.0,9.0,39,0.00,,---,0.00,VWS V14.01,2013-03-21 23:20:00,
2013-03-21 17:25:00,31.7,9.6,29.73,SSW,203,6.0,9.0,39,0.00,,---,0.00,VWS V14.01,2013-03-21 23:25:00,
2013-03-21 17:30:00,31.2,10.2,29.72,WSW,257,1.0,9.0,41,0.00,,---,0.00,VWS V14.01,2013-03-21 23:30:00,
2013-03-21 17:35:00,31.0,9.0,29.73,South,191,5.0,6.0,39,0.00,,---,0.00,VWS V14.01,2013-03-21 23:35:00,
2013-03-21 17:40:00,30.9,10.0,29.73,NNE,23,7.0,12.0,41,0.00,,---,0.00,VWS V14.01,2013-03-21 23:40:00,
2013-03-21 17:45:00,31.0,9.5,29.74,North,354,1.0,12.0,40,0.00,,---,0.00,VWS V14.01,2013-03-21 23:45:00,
2013-03-21 17:50:00,31.3,10.3,29.74,North,358,1.0,12.0,41,0.00,,---,0.00,VWS V14.01,2013-03-21 23:50:00,
2013-03-21 17:55:00,31.4,9.3,29.74,NNW,337,0.0,12.0,39,0.00,,---,0.00,VWS V14.01,2013-03-21 23:55:00,
2013-03-21 18:00:00,31.5,10.5,29.74,ESE,115,2.0,12.0,41,0.00,,---,0.00,VWS V14.01,2013-03-22 00:00:00,
2013-03-21 18:05:00,30.9,9.4,29.74,WSW,240,2.0,6.0,40,0.00,,---,0.00,VWS V14.01,2013-03-22 00:05:00,
2013-03-21 18:10:00,30.6,8.6,29.75,West,266,1.0,7.0,39,0.00,,---,0.00,VWS V14.01,2013-03-22 00:10:00,
2013-03-21 18:15:00,30.0,8.1,29.75,ENE,60,3.0,7.0,39,0.00,,---,0.00,VWS V14.01,2013-03-22 00:15:00,
2013-03-21 18:20:00,29.5,7.6,29.74,East,97,2.0,7.0,39,0.00,,---,0.00,VWS V14.01,2013-03-22 00:20:00,
2013-03-21 18:25:00,28.9,7.6,29.74,WSW,242,2.0,7.0,40,0.00,,---,0.00,VWS V14.01,2013-03-22 00:25:00,
2013-03-21 18:30:00,28.5,7.3,29.73,ESE,103,3.0,7.0,40,0.00,,---,0.00,VWS V14.01,2013-03-22 00:30:00,
2013-03-21 18:35:00,28.1,6.9,29.73,NE,36,1.0,5.0,40,0.00,,---,0.00,VWS V14.01,2013-03-22 00:35:00,
2013-03-21 18:40:00,27.7,5.4,29.73,SE,125,1.0,5.0,38,0.00,,---,0.00,VWS V14.01,2013-03-22 00:40:00,
2013-03-21 18:45:00,27.3,6.7,29.72,SSW,194,4.0,7.0,41,0.00,,---,0.00,VWS V14.01,2013-03-22 00:45:00,
2013-03-21 18:50:00,26.9,2.9,29.73,NNW,331,1.0,14.0,35,0.00,,---,0.00,VWS V14.01,2013-03-22 00:50:00,
2013-03-21 18:55:00,27.0,3.6,29.75,SSE,161,0.0,14.0,36,0.00,,---,0.00,VWS V14.01,2013-03-22 00:55:00,
2013-03-21 19:00:00,26.9,3.5,29.75,NNW,347,0.0,14.0,36,0.00,,---,0.00,VWS V14.01,2013-03-22 01:00:00,
2013-03-21 19:05:00,26.7,3.9,29.75,WNW,297,6.0,11.0,37,0.00,,---,0.00,VWS V14.01,2013-03-22 01:05:00,
2013-03-21 19:10:00,26.5,3.8,29.75,SSE,166,4.0,11.0,37,0.00,,---,0.00,VWS V14.01,2013-03-22 01:10:00,
2013-03-21 19:15:00,26.4,3.7,29.74,West,276,0.0,11.0,37,0.00,,---,0.00,VWS V14.01,2013-03-22 01:15:00,
2013-03-21 19:20:00,26.4,3.1,29.75,North,359,4.0,11.0,36,0.00,,---,0.00,VWS V14.01,2013-03-22 01:20:00,
2013-03-21 19:25:00,26.3,4.2,29.76,SW,235,1.0,13.0,38,0.00,,---,0.00,VWS V14.01,2013-03-22 01:25:00,
2013-03-21 19:30:00,26.2,4.6,29.76,NNW,337,1.0,13.0,39,0.00,,---,0.00,VWS V14.01,2013-03-22 01:30:00,
2013-03-21 19:35:00,26.0,5.0,29.77,SSE,158,0.0,1.0,40,0.00,,---,0.00,VWS V14.01,2013-03-22 01:35:00,
2013-03-21 19:40:00,25.8,4.8,29.78,WSW,255,3.0,6.0,40,0.00,,---,0.00,VWS V14.01,2013-03-22 01:40:00,
2013-03-21 19:45:00,25.8,4.3,29.77,SE,132,0.0,7.0,39,0.00,,---,0.00,VWS V14.01,2013-03-22 01:45:00,
2013-03-21 19:50:00,25.6,4.1,29.79,SW,215,3.0,7.0,39,0.00,,---,0.00,VWS V14.01,2013-03-22 01:50:00,
2013-03-21 19:55:00,25.6,4.1,29.79,North,354,1.0,7.0,39,0.00,,---,0.00,VWS V14.01,2013-03-22 01:55:00,
2013-03-21 20:00:00,25.5,4.0,29.79,NNW,340,3.0,7.0,39,0.00,,---,0.00,VWS V14.01,2013-03-22 02:00:00,
2013-03-21 20:05:00,25.3,3.8,29.79,NNE,33,3.0,4.0,39,0.00,,---,0.00,VWS V14.01,2013-03-22 02:05:00,
2013-03-21 20:10:00,25.2,3.7,29.80,WNW,293,1.0,5.0,39,0.00,,---,0.00,VWS V14.01,2013-03-22 02:10:00,
2013-03-21 20:15:00,25.1,3.6,29.79,East,99,0.0,5.0,39,0.00,,---,0.00,VWS V14.01,2013-03-22 02:15:00,
2013-03-21 20:20:00,24.8,3.9,29.79,SSE,148,0.0,5.0,40,0.00,,---,0.00,VWS V14.01,2013-03-22 02:20:00,
2013-03-21 20:25:00,24.7,3.3,29.79,East,96,0.0,5.0,39,0.00,,---,0.00,VWS V14.01,2013-03-22 02:25:00,
2013-03-21 20:30:00,24.7,3.3,29.79,NNW,345,3.0,7.0,39,0.00,,---,0.00,VWS V14.01,2013-03-22 02:30:00,
2013-03-21 20:35:00,24.6,3.7,29.80,SE,132,0.0,1.0,40,0.00,,---,0.00,VWS V14.01,2013-03-22 02:35:00,
2013-03-21 20:40:00,24.6,4.3,29.80,South,181,3.0,11.0,41,0.00,,---,0.00,VWS V14.01,2013-03-22 02:40:00,
2013-03-21 20:45:00,24.5,3.7,29.80,SW,215,1.0,11.0,40,0.00,,---,0.00,VWS V14.01,2013-03-22 02:45:00,
2013-03-21 20:50:00,24.5,3.7,29.80,ESE,122,0.0,11.0,40,0.00,,---,0.00,VWS V14.01,2013-03-22 02:50:00,
2013-03-21 20:55:00,24.5,3.7,29.81,SW,235,6.0,11.0,40,0.00,,---,0.00,VWS V14.01,2013-03-22 02:55:00,
2013-03-21 21:00:00,24.5,3.7,29.81,ESE,106,2.0,11.0,40,0.00,,---,0.00,VWS V14.01,2013-03-22 03:00:00,
2013-03-21 21:05:00,24.4,3.6,29.81,NNW,344,9.0,9.0,40,0.00,,---,0.00,VWS V14.01,2013-03-22 03:05:00,
2013-03-21 21:10:00,24.3,3.5,29.81,ESE,113,0.0,11.0,40,0.00,,---,0.00,VWS V14.01,2013-03-22 03:10:00,
2013-03-21 21:15:00,24.2,2.8,29.81,WNW,295,2.0,11.0,39,0.00,,---,0.00,VWS V14.01,2013-03-22 03:15:00,
2013-03-21 21:20:00,24.3,2.9,29.81,NNW,342,4.0,11.0,39,0.00,,---,0.00,VWS V14.01,2013-03-22 03:20:00,
2013-03-21 21:25:00,24.2,3.4,29.81,West,267,2.0,11.0,40,0.00,,---,0.00,VWS V14.01,2013-03-22 03:25:00,
2013-03-21 21:30:00,24.0,2.7,29.81,SE,143,3.0,11.0,39,0.00,,---,0.00,VWS V14.01,2013-03-22 03:30:00,
2013-03-21 21:35:00,24.0,2.7,29.82,ENE,67,2.0,2.0,39,0.00,,---,0.00,VWS V14.01,2013-03-22 03:35:00,
2013-03-21 21:40:00,23.9,3.1,29.81,SE,135,2.0,6.0,40,0.00,,---,0.00,VWS V14.01,2013-03-22 03:40:00,
2013-03-21 21:45:00,23.7,2.9,29.81,NW,325,8.0,10.0,40,0.00,,---,0.00,VWS V14.01,2013-03-22 03:45:00,
2013-03-21 21:50:00,23.6,2.8,29.82,ESE,110,4.0,12.0,40,0.00,,---,0.00,VWS V14.01,2013-03-22 03:50:00,
2013-03-21 21:55:00,23.5,2.2,29.81,WSW,248,1.0,12.0,39,0.00,,---,0.00,VWS V14.01,2013-03-22 03:55:00,
2013-03-21 22:00:00,23.4,2.1,29.82,SE,129,7.0,12.0,39,0.00,,---,0.00,VWS V14.01,2013-03-22 04:00:00,
2013-03-21 22:01:00,23.4,2.1,29.82,ESE,118,2.0,12.0,39,0.00,,---,0.00,VWS V14.01,2013-03-22 04:01:00,
2013-03-21 22:06:00,23.3,2.0,29.82,East,99,4.0,5.0,39,0.00,,---,0.00,VWS V14.01,2013-03-22 04:06:00,
2013-03-21 22:11:00,23.0,2.3,29.82,SE,132,3.0,5.0,40,0.00,,---,0.00,VWS V14.01,2013-03-22 04:11:00,
2013-03-21 22:16:00,22.8,2.1,29.83,SE,129,0.0,8.0,40,0.00,,---,0.00,VWS V14.01,2013-03-22 04:16:00,
2013-03-21 22:21:00,22.8,2.6,29.83,NNW,343,2.0,8.0,41,0.00,,---,0.00,VWS V14.01,2013-03-22 04:21:00,
2013-03-21 22:26:00,22.7,2.0,29.83,NE,35,0.0,8.0,40,0.00,,---,0.00,VWS V14.01,2013-03-22 04:26:00,
2013-03-21 22:31:00,22.7,2.5,29.83,North,355,0.0,8.0,41,0.00,,---,0.00,VWS V14.01,2013-03-22 04:31:00,
2013-03-21 22:36:00,22.6,2.5,29.83,WNW,300,2.0,4.0,41,0.00,,---,0.00,VWS V14.01,2013-03-22 04:36:00,
2013-03-21 22:41:00,22.7,3.1,29.82,SW,233,2.0,5.0,42,0.00,,---,0.00,VWS V14.01,2013-03-22 04:41:00,
2013-03-21 22:46:00,22.6,3.0,29.82,ESE,113,1.0,5.0,42,0.00,,---,0.00,VWS V14.01,2013-03-22 04:46:00,
2013-03-21 22:51:00,22.7,3.1,29.83,WSW,238,2.0,8.0,42,0.00,,---,0.00,VWS V14.01,2013-03-22 04:51:00,
2013-03-21 22:56:00,22.7,3.1,29.83,SW,233,0.0,8.0,42,0.00,,---,0.00,VWS V14.01,2013-03-22 04:56:00,
2013-03-21 23:01:00,22.7,3.6,29.83,NNE,28,7.0,11.0,43,0.00,,---,0.00,VWS V14.01,2013-03-22 05:01:00,
2013-03-21 23:06:00,22.7,3.6,29.82,ESE,108,6.0,8.0,43,0.00,,---,0.00,VWS V14.01,2013-03-22 05:06:00,
2013-03-21 23:11:00,22.9,3.2,29.82,SW,228,5.0,12.0,42,0.00,,---,0.00,VWS V14.01,2013-03-22 05:11:00,
2013-03-21 23:16:00,22.9,3.8,29.82,WSW,256,2.0,12.0,43,0.00,,---,0.00,VWS V14.01,2013-03-22 05:16:00,
2013-03-21 23:21:00,23.1,3.9,29.82,South,182,2.0,12.0,43,0.00,,---,0.00,VWS V14.01,2013-03-22 05:21:00,
2013-03-21 23:26:00,23.1,3.9,29.84,NW,311,7.0,12.0,43,0.00,,---,0.00,VWS V14.01,2013-03-22 05:26:00,
2013-03-21 23:31:00,23.2,3.5,29.83,ENE,72,5.0,12.0,42,0.00,,---,0.00,VWS V14.01,2013-03-22 05:31:00,
2013-03-21 23:36:00,23.3,3.6,29.84,SSE,158,2.0,6.0,42,0.00,,---,0.00,VWS V14.01,2013-03-22 05:36:00,
2013-03-21 23:42:00,23.3,3.6,29.84,WSW,255,1.0,15.0,42,0.00,,---,0.00,VWS V14.01,2013-03-22 05:42:00,
2013-03-21 23:47:00,23.4,3.7,29.84,WNW,302,2.0,15.0,42,0.00,,---,0.00,VWS V14.01,2013-03-22 05:47:00,
2013-03-21 23:52:00,23.5,3.8,29.84,NNW,348,3.0,15.0,42,0.00,,---,0.00,VWS V14.01,2013-03-22 05:52:00,
2013-03-21 23:57:00,23.5,3.8,29.84,West,269,5.0,15.0,42,0.00,,---,0.00,VWS V14.01,2013-03-22 05:57:00,